CMP891 MPTO-KATL

Flight info

Callsign CMP891
Flight time N/A
Altitude 36000
Route SIMAN3A SIMAN DCT MORLI UN420 PELRA DCT ILUBA UL333 PISAD/N0464F370 M215 CIGAR DCT CTY/N0470F360 DCT SZW DCT BEORN HOBTT2
Aircraft B38M/M-SDE1FGHILORVWXY/HB1

Departure

Time 2026-05-06 01:42
Airport Tocumen International Airport (MPTO)

Arrival

Time N/A
Airport Hartsfield Jackson Atlanta International Airport (KATL)
Time Latitude Longitude Altitude Speed Heading
2026-05-06 01:32 9.06016 -79.39110 32 ft 0 kts 324°
2026-05-06 01:34 9.06004 -79.39100 32 ft 2 kts 323°
2026-05-06 01:35 9.05991 -79.39090 32 ft 2 kts 321°
2026-05-06 01:35 9.05979 -79.39079 32 ft 2 kts 318°
2026-05-06 01:35 9.05967 -79.39068 32 ft 2 kts 312°
2026-05-06 01:35 9.05957 -79.39054 32 ft 2 kts 294°
2026-05-06 01:36 9.05957 -79.39038 32 ft 2 kts 227°
2026-05-06 01:36 9.05962 -79.39034 32 ft 0 kts 213°
2026-05-06 01:38 9.05949 -79.39042 32 ft 13 kts 212°
2026-05-06 01:38 9.05842 -79.39104 32 ft 20 kts 205°
2026-05-06 01:38 9.05718 -79.39149 32 ft 17 kts 155°
2026-05-06 01:38 9.05662 -79.39048 32 ft 17 kts 121°
2026-05-06 01:39 9.05572 -79.38981 32 ft 17 kts 194°
2026-05-06 01:39 9.05462 -79.39037 32 ft 19 kts 217°
2026-05-06 01:39 9.05344 -79.39113 32 ft 22 kts 209°
2026-05-06 01:39 9.05189 -79.39203 32 ft 28 kts 208°
2026-05-06 01:40 9.05013 -79.39302 33 ft 29 kts 208°
2026-05-06 01:40 9.04854 -79.39370 33 ft 18 kts 162°
2026-05-06 01:40 9.04793 -79.39270 34 ft 17 kts 82°
2026-05-06 01:40 9.04901 -79.39182 34 ft 26 kts 29°
2026-05-06 01:41 9.05225 -79.39000 33 ft 87 kts 28°
2026-05-06 01:41 9.05923 -79.38603 35 ft 144 kts 29°
2026-05-06 01:41 9.06834 -79.38083 38 ft 171 kts 30°
2026-05-06 01:41 9.07973 -79.37420 414 ft 201 kts 30°
2026-05-06 01:42 9.09190 -79.36720 1243 ft 197 kts 26°
2026-05-06 01:42 9.10505 -79.36461 2010 ft 201 kts 349°
2026-05-06 01:42 9.11753 -79.37167 2535 ft 218 kts 315°
2026-05-06 01:42 9.12592 -79.38527 3009 ft 239 kts 294°
2026-05-06 01:43 9.13319 -79.40103 3522 ft 256 kts 299°
2026-05-06 01:43 9.14166 -79.41756 4056 ft 272 kts 298°
2026-05-06 01:43 9.15039 -79.43483 4810 ft 277 kts 298°
2026-05-06 01:43 9.15911 -79.45232 4892 ft 278 kts 298°
2026-05-06 01:44 9.16773 -79.46971 4913 ft 277 kts 298°
2026-05-06 01:44 9.17637 -79.48721 4908 ft 278 kts 298°
2026-05-06 01:44 9.18500 -79.50469 4917 ft 278 kts 298°
2026-05-06 01:44 9.19348 -79.52191 4902 ft 277 kts 298°
2026-05-06 01:45 9.20210 -79.53941 4912 ft 277 kts 298°
2026-05-06 01:45 9.21069 -79.55689 4904 ft 277 kts 298°
2026-05-06 01:45 9.21931 -79.57439 4909 ft 277 kts 298°
2026-05-06 01:45 9.22790 -79.59186 4907 ft 277 kts 298°
2026-05-06 01:46 9.23648 -79.60930 4906 ft 277 kts 298°
2026-05-06 01:46 9.24506 -79.62676 4906 ft 277 kts 298°
2026-05-06 01:46 9.25366 -79.64424 4909 ft 277 kts 298°
2026-05-06 01:46 9.26225 -79.66172 4911 ft 277 kts 298°
2026-05-06 01:47 9.27083 -79.67917 4911 ft 277 kts 298°
2026-05-06 01:47 9.27941 -79.69664 4907 ft 277 kts 298°
2026-05-06 01:47 9.28800 -79.71410 4912 ft 277 kts 298°
2026-05-06 01:47 9.29658 -79.73157 4909 ft 277 kts 298°
2026-05-06 01:48 9.30515 -79.74901 4910 ft 276 kts 298°
2026-05-06 01:48 9.31370 -79.76643 4908 ft 276 kts 298°
2026-05-06 01:48 9.32225 -79.78382 4907 ft 276 kts 298°
2026-05-06 01:48 9.33068 -79.80098 4906 ft 275 kts 298°
2026-05-06 01:49 9.33922 -79.81837 4910 ft 276 kts 298°
2026-05-06 01:49 9.34777 -79.83580 4917 ft 276 kts 298°
2026-05-06 01:49 9.35636 -79.85320 4913 ft 277 kts 301°
2026-05-06 01:49 9.36917 -79.86740 5627 ft 271 kts 328°
2026-05-06 01:50 9.38536 -79.87742 6422 ft 276 kts 331°
2026-05-06 01:50 9.40217 -79.88743 7114 ft 281 kts 332°
2026-05-06 01:50 9.41917 -79.89734 7882 ft 285 kts 332°
2026-05-06 01:50 9.43657 -79.90736 8607 ft 289 kts 333°
2026-05-06 01:51 9.45421 -79.91744 9339 ft 294 kts 333°
2026-05-06 01:51 9.47220 -79.92767 10061 ft 298 kts 333°
2026-05-06 01:51 9.49060 -79.93810 10530 ft 311 kts 333°
2026-05-06 01:51 9.50998 -79.94908 10853 ft 328 kts 333°
2026-05-06 01:52 9.53019 -79.96051 11122 ft 345 kts 333°
2026-05-06 01:52 9.55167 -79.97268 11370 ft 362 kts 333°
2026-05-06 01:52 9.57406 -79.98535 11671 ft 375 kts 333°
2026-05-06 01:52 9.59685 -79.99826 12297 ft 375 kts 333°
2026-05-06 01:53 9.61976 -80.01123 12883 ft 379 kts 333°
2026-05-06 01:53 9.64294 -80.02436 13448 ft 383 kts 333°
2026-05-06 01:53 9.66630 -80.03759 13988 ft 387 kts 333°
2026-05-06 01:53 9.68991 -80.05096 14486 ft 390 kts 333°
2026-05-06 01:54 9.71366 -80.06442 15003 ft 393 kts 333°
2026-05-06 01:54 9.73764 -80.07801 15487 ft 396 kts 333°
2026-05-06 01:54 9.76177 -80.09168 15963 ft 399 kts 333°
2026-05-06 01:54 9.78611 -80.10548 16433 ft 403 kts 333°
2026-05-06 01:55 9.81066 -80.11940 16903 ft 405 kts 333°
2026-05-06 01:55 9.83535 -80.13340 17374 ft 408 kts 333°
2026-05-06 01:55 9.86023 -80.14751 17819 ft 411 kts 333°
2026-05-06 01:55 9.88530 -80.16173 18248 ft 414 kts 333°
2026-05-06 01:56 9.91021 -80.17586 18622 ft 417 kts 332°
2026-05-06 01:56 9.93588 -80.19043 19020 ft 418 kts 332°
2026-05-06 01:56 9.96129 -80.20485 19392 ft 420 kts 332°
2026-05-06 01:56 9.98684 -80.21935 19758 ft 422 kts 332°
2026-05-06 01:57 10.01229 -80.23381 20123 ft 424 kts 332°
2026-05-06 01:57 10.03804 -80.24843 20478 ft 426 kts 332°
2026-05-06 01:57 10.06400 -80.26317 20823 ft 428 kts 332°
2026-05-06 01:57 10.09006 -80.27798 21166 ft 430 kts 332°
2026-05-06 01:58 10.11621 -80.29284 21510 ft 432 kts 332°
2026-05-06 01:58 10.14246 -80.30775 21841 ft 433 kts 332°
2026-05-06 01:58 10.16886 -80.32275 22178 ft 435 kts 332°
2026-05-06 01:58 10.19529 -80.33778 22499 ft 437 kts 332°
2026-05-06 01:59 10.22198 -80.35296 22815 ft 439 kts 332°
2026-05-06 01:59 10.24877 -80.36819 23128 ft 441 kts 332°
2026-05-06 01:59 10.27556 -80.38343 23437 ft 443 kts 332°
2026-05-06 01:59 10.30254 -80.39878 23695 ft 445 kts 332°
2026-05-06 02:00 10.32953 -80.41414 23949 ft 446 kts 332°
2026-05-06 02:00 10.35668 -80.42959 24200 ft 448 kts 332°
2026-05-06 02:00 10.38389 -80.44508 24444 ft 449 kts 332°
2026-05-06 02:00 10.41124 -80.46065 24684 ft 451 kts 332°
2026-05-06 02:01 10.43866 -80.47627 24935 ft 453 kts 332°
2026-05-06 02:01 10.46621 -80.49196 25161 ft 454 kts 332°
2026-05-06 02:01 10.49345 -80.50749 25402 ft 456 kts 332°
2026-05-06 02:01 10.52115 -80.52327 25649 ft 457 kts 332°
2026-05-06 02:02 10.54894 -80.53910 25885 ft 459 kts 332°
2026-05-06 02:02 10.57684 -80.55501 26110 ft 460 kts 332°
2026-05-06 02:02 10.60485 -80.57098 26348 ft 462 kts 332°
2026-05-06 02:02 10.63294 -80.58700 26579 ft 463 kts 332°
2026-05-06 02:03 10.66106 -80.60304 26804 ft 465 kts 332°
2026-05-06 02:03 10.68935 -80.61916 27025 ft 466 kts 332°
2026-05-06 02:03 10.71768 -80.63529 27257 ft 468 kts 332°
2026-05-06 02:03 10.74609 -80.65148 27482 ft 469 kts 332°
2026-05-06 02:04 10.77462 -80.66772 27697 ft 470 kts 332°
2026-05-06 02:04 10.80326 -80.68404 27915 ft 472 kts 332°
2026-05-06 02:04 10.83193 -80.70038 28124 ft 473 kts 332°
2026-05-06 02:04 10.86069 -80.71677 28336 ft 474 kts 332°
2026-05-06 02:05 10.88958 -80.73325 28540 ft 476 kts 332°
2026-05-06 02:05 10.91849 -80.74974 28749 ft 477 kts 332°
2026-05-06 02:05 10.94711 -80.76606 28961 ft 478 kts 332°
2026-05-06 02:05 10.97617 -80.78264 29155 ft 480 kts 332°
2026-05-06 02:06 11.00532 -80.79927 29349 ft 481 kts 332°
2026-05-06 02:06 11.03455 -80.81595 29548 ft 482 kts 332°
2026-05-06 02:06 11.06375 -80.83263 29809 ft 482 kts 332°
2026-05-06 02:06 11.09301 -80.84933 30099 ft 481 kts 332°
2026-05-06 02:07 11.12211 -80.86596 30341 ft 480 kts 331°
2026-05-06 02:07 11.15126 -80.88261 30576 ft 479 kts 332°
2026-05-06 02:07 11.18037 -80.89925 30823 ft 479 kts 332°
2026-05-06 02:07 11.20941 -80.91585 31076 ft 478 kts 331°
2026-05-06 02:08 11.23840 -80.93242 31325 ft 478 kts 331°
2026-05-06 02:08 11.26740 -80.94900 31574 ft 477 kts 331°
2026-05-06 02:08 11.29632 -80.96554 31834 ft 476 kts 331°
2026-05-06 02:08 11.32479 -80.98183 32088 ft 476 kts 331°
2026-05-06 02:09 11.35367 -80.99837 32348 ft 475 kts 331°
2026-05-06 02:09 11.38254 -81.01489 32604 ft 474 kts 331°
2026-05-06 02:09 11.41129 -81.03135 32871 ft 474 kts 331°
2026-05-06 02:09 11.44000 -81.04779 33134 ft 473 kts 330°
2026-05-06 02:10 11.46868 -81.06421 33400 ft 472 kts 330°
2026-05-06 02:10 11.49729 -81.08061 33666 ft 471 kts 330°
2026-05-06 02:10 11.52587 -81.09698 33934 ft 470 kts 330°
2026-05-06 02:10 11.55438 -81.11332 34171 ft 469 kts 330°
2026-05-06 02:11 11.58285 -81.12964 34415 ft 468 kts 330°
2026-05-06 02:11 11.61118 -81.14589 34671 ft 466 kts 330°
2026-05-06 02:11 11.63942 -81.16209 34911 ft 465 kts 330°
2026-05-06 02:11 11.66725 -81.17806 35156 ft 463 kts 330°
2026-05-06 02:12 11.69534 -81.19417 35390 ft 462 kts 330°
2026-05-06 02:12 11.72330 -81.21022 35614 ft 460 kts 330°
2026-05-06 02:12 11.75121 -81.22624 35820 ft 460 kts 330°
2026-05-06 02:12 11.77914 -81.24229 35935 ft 459 kts 330°
2026-05-06 02:13 11.83465 -81.27417 35954 ft 457 kts 330°
2026-05-06 02:13 11.88983 -81.30589 35950 ft 457 kts 330°
2026-05-06 02:14 11.94524 -81.33775 35947 ft 457 kts 330°
2026-05-06 02:14 11.99164 -81.36444 35946 ft 457 kts 330°
2026-05-06 02:15 12.04665 -81.39610 35946 ft 457 kts 330°
2026-05-06 02:15 12.10203 -81.42798 35952 ft 457 kts 330°
2026-05-06 02:16 12.15743 -81.45989 35950 ft 457 kts 330°
2026-05-06 02:16 12.21284 -81.49183 35954 ft 457 kts 330°
2026-05-06 02:17 12.26818 -81.52374 35952 ft 457 kts 330°
2026-05-06 02:17 12.32362 -81.55572 35956 ft 457 kts 330°
2026-05-06 02:18 12.37900 -81.58768 35959 ft 457 kts 330°
2026-05-06 02:18 12.43435 -81.61964 35964 ft 457 kts 330°
2026-05-06 02:19 12.48973 -81.65164 35966 ft 457 kts 330°
2026-05-06 02:19 12.54476 -81.68344 35964 ft 457 kts 330°
2026-05-06 02:20 12.63037 -81.72640 35965 ft 458 kts 336°
2026-05-06 02:21 12.68880 -81.75238 35966 ft 458 kts 336°
2026-05-06 02:21 12.74720 -81.77829 35965 ft 458 kts 336°
2026-05-06 02:22 12.80569 -81.80424 35960 ft 457 kts 336°
2026-05-06 02:22 12.86406 -81.83016 35961 ft 457 kts 336°
2026-05-06 02:23 12.92247 -81.85610 35961 ft 457 kts 336°
2026-05-06 02:23 12.98095 -81.88209 35964 ft 458 kts 336°
2026-05-06 02:24 13.03937 -81.90807 35965 ft 457 kts 336°
2026-05-06 02:24 13.09778 -81.93405 35966 ft 458 kts 336°
2026-05-06 02:25 13.15593 -81.95994 35967 ft 458 kts 336°
2026-05-06 02:25 13.21439 -81.98597 35966 ft 457 kts 336°
2026-05-06 02:26 13.27282 -82.01201 35964 ft 457 kts 337°
2026-05-06 02:26 13.33118 -82.03803 35966 ft 457 kts 337°
2026-05-06 02:27 13.38963 -82.06410 35971 ft 458 kts 337°
2026-05-06 02:27 13.44812 -82.09020 35966 ft 458 kts 337°
2026-05-06 02:28 13.50652 -82.11627 35970 ft 458 kts 337°
2026-05-06 02:28 13.56451 -82.14219 35968 ft 457 kts 337°
2026-05-06 02:29 13.62289 -82.16828 35970 ft 457 kts 337°
2026-05-06 02:29 13.68129 -82.19440 35966 ft 457 kts 337°
2026-05-06 02:30 13.73952 -82.22045 35971 ft 456 kts 337°
2026-05-06 02:30 13.79778 -82.24654 35971 ft 456 kts 337°
2026-05-06 02:31 13.85605 -82.27264 35974 ft 456 kts 337°
2026-05-06 02:31 13.91393 -82.29859 35973 ft 456 kts 337°
2026-05-06 02:32 13.97205 -82.32465 35971 ft 456 kts 337°
2026-05-06 02:32 14.03023 -82.35076 35974 ft 455 kts 337°
2026-05-06 02:33 14.08830 -82.37683 35972 ft 455 kts 337°
2026-05-06 02:33 14.10788 -82.38562 35976 ft 455 kts 337°
2026-05-06 02:34 14.20434 -82.42896 35975 ft 455 kts 337°
2026-05-06 02:34 14.26222 -82.45544 35978 ft 455 kts 335°
2026-05-06 02:35 14.31967 -82.48261 35977 ft 454 kts 336°
2026-05-06 02:35 14.37713 -82.50969 35977 ft 454 kts 336°
2026-05-06 02:36 14.43462 -82.53679 35977 ft 454 kts 335°
2026-05-06 02:36 14.49171 -82.56372 35979 ft 454 kts 335°
2026-05-06 02:37 14.54916 -82.59084 35978 ft 454 kts 335°
2026-05-06 02:37 14.60660 -82.61796 35980 ft 454 kts 335°
2026-05-06 02:38 14.66413 -82.64515 35978 ft 454 kts 335°
2026-05-06 02:38 14.72164 -82.67233 35981 ft 454 kts 335°
2026-05-06 02:39 14.77866 -82.69931 35978 ft 454 kts 335°
2026-05-06 02:39 14.83615 -82.72652 35975 ft 454 kts 335°
2026-05-06 02:40 14.89357 -82.75371 35983 ft 454 kts 335°
2026-05-06 02:40 14.95099 -82.78092 35983 ft 454 kts 335°
2026-05-06 02:41 15.00846 -82.80818 35984 ft 454 kts 335°
2026-05-06 02:41 15.06589 -82.83543 35986 ft 454 kts 335°
2026-05-06 02:42 15.12328 -82.86267 35988 ft 454 kts 335°
2026-05-06 02:42 15.18042 -82.88981 35987 ft 454 kts 335°
2026-05-06 02:43 15.23784 -82.91711 35987 ft 454 kts 335°
2026-05-06 02:43 15.29534 -82.94445 35984 ft 454 kts 335°
2026-05-06 02:44 15.35274 -82.97177 35987 ft 454 kts 335°
2026-05-06 02:44 15.41017 -82.99912 35985 ft 454 kts 335°
2026-05-06 02:45 15.46758 -83.02647 35992 ft 454 kts 335°
2026-05-06 02:45 15.52495 -83.05382 35987 ft 454 kts 335°
2026-05-06 02:46 15.58192 -83.08100 35983 ft 454 kts 335°
2026-05-06 02:46 15.63924 -83.10836 35992 ft 453 kts 335°
2026-05-06 02:47 15.69663 -83.13577 35990 ft 453 kts 335°
2026-05-06 02:47 15.75395 -83.16317 35990 ft 453 kts 335°
2026-05-06 02:48 15.81123 -83.19055 35995 ft 453 kts 335°
2026-05-06 02:48 15.86855 -83.21799 35996 ft 453 kts 335°
2026-05-06 02:49 15.92582 -83.24541 35999 ft 453 kts 335°
2026-05-06 02:49 15.98310 -83.27286 35990 ft 453 kts 336°
2026-05-06 02:50 16.04002 -83.30015 36000 ft 453 kts 336°
2026-05-06 02:50 16.09725 -83.32760 35994 ft 453 kts 336°
2026-05-06 02:51 16.15448 -83.35507 35992 ft 453 kts 336°
2026-05-06 02:51 16.21173 -83.38257 35990 ft 453 kts 336°
2026-05-06 02:52 16.26889 -83.41005 36000 ft 453 kts 336°
2026-05-06 02:52 16.32610 -83.43756 35997 ft 453 kts 336°
2026-05-06 02:53 16.38337 -83.46513 35995 ft 453 kts 336°
2026-05-06 02:53 16.44019 -83.49249 35992 ft 453 kts 336°
2026-05-06 02:54 16.49737 -83.52005 35995 ft 453 kts 336°
2026-05-06 02:54 16.55454 -83.54762 36001 ft 453 kts 336°
2026-05-06 02:55 16.61167 -83.57519 35995 ft 452 kts 336°
2026-05-06 02:55 16.66879 -83.60276 35994 ft 452 kts 336°
2026-05-06 02:56 16.72589 -83.63035 36001 ft 452 kts 336°
2026-05-06 02:56 16.78262 -83.65779 35999 ft 452 kts 336°
2026-05-06 02:57 16.83972 -83.68541 36001 ft 452 kts 336°
2026-05-06 02:57 16.89675 -83.71302 36001 ft 451 kts 336°
2026-05-06 02:58 16.95375 -83.74063 36005 ft 451 kts 336°
2026-05-06 02:58 17.01069 -83.76824 36002 ft 451 kts 336°
2026-05-06 02:59 17.06766 -83.79588 36004 ft 451 kts 336°
2026-05-06 02:59 17.12465 -83.82354 36004 ft 451 kts 336°
2026-05-06 03:00 17.18128 -83.85105 36008 ft 451 kts 336°
2026-05-06 03:00 17.23817 -83.87871 36000 ft 451 kts 336°
2026-05-06 03:01 17.29518 -83.90644 36007 ft 451 kts 336°
2026-05-06 03:01 17.35215 -83.93417 36003 ft 451 kts 336°
2026-05-06 03:02 17.39947 -83.95722 35999 ft 451 kts 336°
2026-05-06 03:02 17.45641 -83.98497 36010 ft 451 kts 336°
2026-05-06 03:03 17.51335 -84.01274 36008 ft 451 kts 336°
2026-05-06 03:03 17.57031 -84.04054 36008 ft 451 kts 336°
2026-05-06 03:04 17.62715 -84.06831 36012 ft 451 kts 336°
2026-05-06 03:04 17.68368 -84.09593 36007 ft 451 kts 336°
2026-05-06 03:05 17.74050 -84.12373 36012 ft 451 kts 336°
2026-05-06 03:05 17.79741 -84.15158 36008 ft 450 kts 336°
2026-05-06 03:06 17.85430 -84.17944 36015 ft 450 kts 336°
2026-05-06 03:06 17.91082 -84.20714 36018 ft 450 kts 336°
2026-05-06 03:07 17.96763 -84.23501 36017 ft 450 kts 336°
2026-05-06 03:07 18.02436 -84.26285 36009 ft 450 kts 336°
2026-05-06 03:08 18.08119 -84.29077 36019 ft 450 kts 336°
2026-05-06 03:08 18.13792 -84.31865 36017 ft 450 kts 336°
2026-05-06 03:09 18.19462 -84.34654 36019 ft 450 kts 336°
2026-05-06 03:09 18.25093 -84.37426 36018 ft 449 kts 336°
2026-05-06 03:10 18.30756 -84.40215 36017 ft 449 kts 336°
2026-05-06 03:10 18.36423 -84.43008 36022 ft 449 kts 336°
2026-05-06 03:11 18.42083 -84.45801 36020 ft 449 kts 336°
2026-05-06 03:11 18.47744 -84.48595 36018 ft 449 kts 336°
2026-05-06 03:12 18.53402 -84.51391 36017 ft 449 kts 336°
2026-05-06 03:12 18.59060 -84.54188 36011 ft 449 kts 336°
2026-05-06 03:13 18.64717 -84.56986 36024 ft 449 kts 336°
2026-05-06 03:13 18.70368 -84.59784 36023 ft 449 kts 336°
2026-05-06 03:14 18.75979 -84.62565 36014 ft 448 kts 336°
2026-05-06 03:14 18.81627 -84.65365 36019 ft 448 kts 336°
2026-05-06 03:15 18.87267 -84.68164 36022 ft 448 kts 336°
2026-05-06 03:15 18.92907 -84.70965 36021 ft 448 kts 336°
2026-05-06 03:16 18.98544 -84.73766 36017 ft 447 kts 336°
2026-05-06 03:16 19.04172 -84.76565 36016 ft 447 kts 336°
2026-05-06 03:17 19.09799 -84.79366 36017 ft 447 kts 336°
2026-05-06 03:17 19.15429 -84.82170 36020 ft 447 kts 336°
2026-05-06 03:18 19.21052 -84.84973 36021 ft 447 kts 336°
2026-05-06 03:18 19.26649 -84.87765 36023 ft 446 kts 336°
2026-05-06 03:19 19.32267 -84.90569 36023 ft 447 kts 335°
2026-05-06 03:19 19.37885 -84.93377 36025 ft 446 kts 335°
2026-05-06 03:20 19.46319 -84.97594 36019 ft 446 kts 335°
2026-05-06 03:20 19.51938 -85.00407 36021 ft 446 kts 335°
2026-05-06 03:21 19.57552 -85.03219 36026 ft 446 kts 335°
2026-05-06 03:21 19.63167 -85.06034 36025 ft 446 kts 335°
2026-05-06 03:22 19.68749 -85.08834 36020 ft 446 kts 335°
2026-05-06 03:22 19.74364 -85.11653 36025 ft 446 kts 335°
2026-05-06 03:23 19.79985 -85.14477 36026 ft 446 kts 335°
2026-05-06 03:23 19.85598 -85.17299 36025 ft 446 kts 335°
2026-05-06 03:24 19.91208 -85.20123 36025 ft 446 kts 335°
2026-05-06 03:24 19.96783 -85.22930 36024 ft 446 kts 335°
2026-05-06 03:25 20.02427 -85.25775 36026 ft 446 kts 335°
2026-05-06 03:25 20.07995 -85.28583 36027 ft 446 kts 335°
2026-05-06 03:26 20.13602 -85.31414 36024 ft 446 kts 335°
2026-05-06 03:26 20.19234 -85.34185 36020 ft 445 kts 339°
2026-05-06 03:27 20.25005 -85.36592 36026 ft 445 kts 339°
2026-05-06 03:27 20.30756 -85.39042 36019 ft 445 kts 338°
2026-05-06 03:28 20.36507 -85.41501 36025 ft 445 kts 338°
2026-05-06 03:28 20.42258 -85.43963 36020 ft 445 kts 338°
2026-05-06 03:29 20.47976 -85.46412 36027 ft 445 kts 338°
2026-05-06 03:29 20.53727 -85.48878 36023 ft 444 kts 338°
2026-05-06 03:30 20.59467 -85.51341 36025 ft 444 kts 338°
2026-05-06 03:30 20.65204 -85.53804 36027 ft 444 kts 338°
2026-05-06 03:31 20.70901 -85.56253 36024 ft 444 kts 338°
2026-05-06 03:31 20.76633 -85.58718 36029 ft 444 kts 338°
2026-05-06 03:32 20.82358 -85.61182 36027 ft 443 kts 338°
2026-05-06 03:32 20.88078 -85.63646 36027 ft 443 kts 338°
2026-05-06 03:33 20.93798 -85.66113 36024 ft 443 kts 338°
2026-05-06 03:33 20.99510 -85.68577 36029 ft 443 kts 338°
2026-05-06 03:34 21.05229 -85.71047 36027 ft 443 kts 338°
2026-05-06 03:34 21.10939 -85.73515 36027 ft 443 kts 338°
2026-05-06 03:35 21.16647 -85.75985 36025 ft 442 kts 338°
2026-05-06 03:35 21.22354 -85.78454 36027 ft 442 kts 338°
2026-05-06 03:36 21.28069 -85.80917 36028 ft 442 kts 338°
2026-05-06 03:36 21.33772 -85.83377 36027 ft 442 kts 338°
2026-05-06 03:37 21.39445 -85.85828 36029 ft 441 kts 338°
2026-05-06 03:37 21.45139 -85.88298 36027 ft 441 kts 338°
2026-05-06 03:38 21.50830 -85.90768 36027 ft 441 kts 338°
2026-05-06 03:38 21.56533 -85.93246 36026 ft 441 kts 338°
2026-05-06 03:39 21.62222 -85.95719 36026 ft 441 kts 338°
2026-05-06 03:39 21.67911 -85.98195 36027 ft 441 kts 338°
2026-05-06 03:40 21.73605 -86.00669 36027 ft 441 kts 338°
2026-05-06 03:40 21.79290 -86.03140 36027 ft 441 kts 338°
2026-05-06 03:41 21.84969 -86.05610 36027 ft 440 kts 338°
2026-05-06 03:41 21.90629 -86.08079 36027 ft 440 kts 337°
2026-05-06 03:42 21.96306 -86.10558 36030 ft 440 kts 337°
2026-05-06 03:42 22.01993 -86.13043 36027 ft 440 kts 337°
2026-05-06 03:43 22.07636 -86.15512 36029 ft 440 kts 337°
2026-05-06 03:43 22.13314 -86.17998 36031 ft 440 kts 337°
2026-05-06 03:44 22.18989 -86.20484 36028 ft 440 kts 337°
2026-05-06 03:44 22.24662 -86.22972 36030 ft 440 kts 337°
2026-05-06 03:45 22.30340 -86.25464 36030 ft 440 kts 337°
2026-05-06 03:45 22.36014 -86.27958 36029 ft 440 kts 337°
2026-05-06 03:46 22.41679 -86.30449 36028 ft 440 kts 337°
2026-05-06 03:46 22.47346 -86.32942 36030 ft 440 kts 337°
2026-05-06 03:47 22.53012 -86.35438 36031 ft 439 kts 336°
2026-05-06 03:47 22.58638 -86.37919 36031 ft 439 kts 336°
2026-05-06 03:48 22.64303 -86.40419 36030 ft 439 kts 336°
2026-05-06 03:48 22.69970 -86.42922 36030 ft 439 kts 336°
2026-05-06 03:49 22.75634 -86.45425 36031 ft 439 kts 336°
2026-05-06 03:49 22.81295 -86.47931 36029 ft 439 kts 336°
2026-05-06 03:50 22.85998 -86.50014 36030 ft 439 kts 336°
2026-05-06 03:50 22.91656 -86.52521 36029 ft 439 kts 336°
2026-05-06 03:51 22.97317 -86.55033 36029 ft 439 kts 336°
2026-05-06 03:51 23.02973 -86.57544 36029 ft 439 kts 336°
2026-05-06 03:52 23.08624 -86.60055 36030 ft 439 kts 336°
2026-05-06 03:52 23.14238 -86.62552 36031 ft 438 kts 336°
2026-05-06 03:53 23.19891 -86.65069 36030 ft 438 kts 336°
2026-05-06 03:53 23.25532 -86.67583 36033 ft 438 kts 336°
2026-05-06 03:54 23.31176 -86.70099 36031 ft 438 kts 336°
2026-05-06 03:54 23.36808 -86.72613 36033 ft 438 kts 336°
2026-05-06 03:55 23.42442 -86.75129 36032 ft 437 kts 336°
2026-05-06 03:55 23.48068 -86.77644 36034 ft 437 kts 336°
2026-05-06 03:56 23.53692 -86.80161 36033 ft 437 kts 336°
2026-05-06 03:56 23.59290 -86.82669 36032 ft 436 kts 335°
2026-05-06 03:57 23.64913 -86.85190 36032 ft 436 kts 335°
2026-05-06 03:57 23.70527 -86.87709 36033 ft 436 kts 335°
2026-05-06 03:58 23.76136 -86.90229 36032 ft 436 kts 335°
2026-05-06 03:58 23.81750 -86.92753 36032 ft 436 kts 335°
2026-05-06 03:59 23.87359 -86.95277 36032 ft 436 kts 335°
2026-05-06 03:59 23.92964 -86.97801 36032 ft 436 kts 335°
2026-05-06 04:00 23.98531 -87.00311 36034 ft 436 kts 335°
2026-05-06 04:00 24.04134 -87.02840 36034 ft 435 kts 335°
2026-05-06 04:01 24.09737 -87.05371 36032 ft 435 kts 335°
2026-05-06 04:01 24.15342 -87.07905 36032 ft 435 kts 335°
2026-05-06 04:02 24.20938 -87.10438 36034 ft 435 kts 335°
2026-05-06 04:02 24.26697 -87.12425 36027 ft 440 kts 353°
2026-05-06 04:03 24.29778 -87.12248 36030 ft 448 kts
2026-05-06 04:03 24.32765 -87.11178 36033 ft 457 kts 21°
2026-05-06 04:03 24.38374 -87.07793 36034 ft 461 kts 25°
2026-05-06 04:04 24.43929 -87.04251 36037 ft 462 kts 26°
2026-05-06 04:04 24.49429 -87.00686 36035 ft 462 kts 26°
2026-05-06 04:05 24.54959 -86.97090 36040 ft 461 kts 26°
2026-05-06 04:05 24.60479 -86.93497 36037 ft 461 kts 26°
2026-05-06 04:06 24.66000 -86.89900 36037 ft 461 kts 26°
2026-05-06 04:06 24.71511 -86.86305 36037 ft 461 kts 26°
2026-05-06 04:07 24.77032 -86.82701 36038 ft 461 kts 26°
2026-05-06 04:07 24.82543 -86.79099 36041 ft 460 kts 25°
2026-05-06 04:08 24.88049 -86.75496 36041 ft 460 kts 25°
2026-05-06 04:08 24.93556 -86.71889 36043 ft 460 kts 25°
2026-05-06 04:09 24.99023 -86.68305 36041 ft 460 kts 25°
2026-05-06 04:09 25.04518 -86.64698 36042 ft 460 kts 25°
2026-05-06 04:10 25.10021 -86.61082 36042 ft 460 kts 25°
2026-05-06 04:10 25.15518 -86.57466 36044 ft 460 kts 25°
2026-05-06 04:11 25.21015 -86.53847 36047 ft 459 kts 25°
2026-05-06 04:11 25.26506 -86.50227 36049 ft 459 kts 25°
2026-05-06 04:12 25.31964 -86.46626 36043 ft 459 kts 25°
2026-05-06 04:12 25.37451 -86.43002 36051 ft 459 kts 25°
2026-05-06 04:13 25.42945 -86.39368 36054 ft 459 kts 25°
2026-05-06 04:13 25.48431 -86.35737 36047 ft 459 kts 25°
2026-05-06 04:14 25.53917 -86.32101 36052 ft 459 kts 25°
2026-05-06 04:14 25.59381 -86.28476 36046 ft 459 kts 25°
2026-05-06 04:15 25.64868 -86.24832 36050 ft 459 kts 25°
2026-05-06 04:15 25.70343 -86.21192 36054 ft 459 kts 25°
2026-05-06 04:16 25.75815 -86.17551 36089 ft 458 kts 24°
2026-05-06 04:16 25.81282 -86.13908 36063 ft 457 kts 24°
2026-05-06 04:17 25.86735 -86.10271 36056 ft 457 kts 24°
2026-05-06 04:17 25.92191 -86.06629 36054 ft 457 kts 24°
2026-05-06 04:18 25.97609 -86.03007 36056 ft 457 kts 24°
2026-05-06 04:18 26.03055 -85.99364 36055 ft 457 kts 24°
2026-05-06 04:19 26.08262 -85.95186 36052 ft 462 kts 30°
2026-05-06 04:19 26.13433 -85.90940 36060 ft 462 kts 29°
2026-05-06 04:20 26.18626 -85.86709 36057 ft 462 kts 29°
2026-05-06 04:20 26.23808 -85.82484 36058 ft 462 kts 29°
2026-05-06 04:21 26.28994 -85.78252 36059 ft 462 kts 29°
2026-05-06 04:21 26.34174 -85.74020 36059 ft 461 kts 28°
2026-05-06 04:22 26.39351 -85.69785 36060 ft 461 kts 28°
2026-05-06 04:23 26.47117 -85.63423 36061 ft 461 kts 28°
2026-05-06 04:23 26.52266 -85.59200 36067 ft 461 kts 28°
2026-05-06 04:24 26.57439 -85.54951 36061 ft 461 kts 28°
2026-05-06 04:24 26.62612 -85.50699 36066 ft 461 kts 28°
2026-05-06 04:25 26.67770 -85.46439 36059 ft 461 kts 28°
2026-05-06 04:25 26.72932 -85.42165 36062 ft 461 kts 28°
2026-05-06 04:26 26.78087 -85.37893 36059 ft 461 kts 28°
2026-05-06 04:26 26.83241 -85.33617 36064 ft 461 kts 28°
2026-05-06 04:27 26.88359 -85.29365 36060 ft 461 kts 28°
2026-05-06 04:27 26.93507 -85.25084 36063 ft 460 kts 28°
2026-05-06 04:28 26.98653 -85.20800 36058 ft 460 kts 28°
2026-05-06 04:28 27.03797 -85.16512 36068 ft 460 kts 28°
2026-05-06 04:29 27.08936 -85.12223 36057 ft 460 kts 28°
2026-05-06 04:29 27.14081 -85.07925 36064 ft 460 kts 28°
2026-05-06 04:30 27.19214 -85.03631 36060 ft 460 kts 28°
2026-05-06 04:30 27.24346 -84.99333 36065 ft 460 kts 27°
2026-05-06 04:31 27.29449 -84.95055 36061 ft 460 kts 27°
2026-05-06 04:31 27.34582 -84.90746 36064 ft 460 kts 27°
2026-05-06 04:32 27.39706 -84.86439 36057 ft 459 kts 27°
2026-05-06 04:32 27.44832 -84.82127 36065 ft 459 kts 27°
2026-05-06 04:33 27.49969 -84.77858 36066 ft 457 kts 26°
2026-05-06 04:33 27.55132 -84.73725 36069 ft 457 kts 26°
2026-05-06 04:34 27.60310 -84.69556 36063 ft 457 kts 26°
2026-05-06 04:34 27.64614 -84.66086 36069 ft 457 kts 26°
2026-05-06 04:35 27.69792 -84.61907 36062 ft 457 kts 26°
2026-05-06 04:35 27.74963 -84.57729 36070 ft 457 kts 26°
2026-05-06 04:36 27.80131 -84.53548 36062 ft 457 kts 26°
2026-05-06 04:36 27.85297 -84.49364 36073 ft 457 kts 26°
2026-05-06 04:37 27.90465 -84.45173 36064 ft 457 kts 26°
2026-05-06 04:37 27.95629 -84.40980 36070 ft 457 kts 26°
2026-05-06 04:38 28.00791 -84.36785 36064 ft 455 kts 26°
2026-05-06 04:38 28.05944 -84.32591 36071 ft 455 kts 26°
2026-05-06 04:39 28.11051 -84.28430 36067 ft 455 kts 26°
2026-05-06 04:39 28.16198 -84.24231 36067 ft 455 kts 26°
2026-05-06 04:40 28.21335 -84.20035 36065 ft 455 kts 26°
2026-05-06 04:40 28.26480 -84.15827 36071 ft 455 kts 26°
2026-05-06 04:41 28.31618 -84.11621 36066 ft 455 kts 26°
2026-05-06 04:41 28.36721 -84.07438 36073 ft 455 kts 26°
2026-05-06 04:42 28.41853 -84.03225 36065 ft 455 kts 26°
2026-05-06 04:42 28.46985 -83.99008 36075 ft 455 kts 26°
2026-05-06 04:43 28.52122 -83.94782 36067 ft 455 kts 26°
2026-05-06 04:43 28.57258 -83.90551 36075 ft 455 kts 26°
2026-05-06 04:44 28.62385 -83.86322 36070 ft 455 kts 26°
2026-05-06 04:44 28.67519 -83.82082 36073 ft 455 kts 26°
2026-05-06 04:45 28.72602 -83.77879 36067 ft 455 kts 26°
2026-05-06 04:45 28.77726 -83.73638 36073 ft 455 kts 26°
2026-05-06 04:46 28.82838 -83.69400 36068 ft 454 kts 26°
2026-05-06 04:46 28.87961 -83.65148 36068 ft 454 kts 26°
2026-05-06 04:47 28.93046 -83.60923 36067 ft 454 kts 26°
2026-05-06 04:47 28.98156 -83.56672 36082 ft 454 kts 25°
2026-05-06 04:48 29.03268 -83.52414 36075 ft 454 kts 25°
2026-05-06 04:48 29.08370 -83.48158 36079 ft 454 kts 25°
2026-05-06 04:49 29.13479 -83.43892 36079 ft 454 kts 25°
2026-05-06 04:49 29.18581 -83.39626 36082 ft 454 kts 25°
2026-05-06 04:50 29.23664 -83.35370 36078 ft 454 kts 25°
2026-05-06 04:50 29.28779 -83.31082 36085 ft 454 kts 25°
2026-05-06 04:51 29.33839 -83.26836 36077 ft 454 kts 25°
2026-05-06 04:51 29.38928 -83.22561 36088 ft 453 kts 25°
2026-05-06 04:52 29.44017 -83.18279 36085 ft 454 kts 25°
2026-05-06 04:52 29.49107 -83.13992 36097 ft 454 kts 25°
2026-05-06 04:52 29.51730 -83.12061 36077 ft 437 kts 14°
2026-05-06 04:53 29.54534 -83.10969 36087 ft 416 kts
2026-05-06 04:53 29.57359 -83.10740 36085 ft 400 kts 347°
2026-05-06 04:53 29.60054 -83.11272 36095 ft 388 kts 336°
2026-05-06 04:54 29.64886 -83.13797 36082 ft 379 kts 323°